Time,TemperatureF,DewpointF,PressureIn,WindDirection,WindDirectionDegrees,WindSpeedMPH,WindSpeedGustMPH,Humidity,HourlyPrecipIn,Conditions,Clouds,dailyrainin,SoftwareType,DateUTC
2013-02-07 00:00:00,27.3,8.0,30.02,West,275,0.0,0.0,43,0.00,,,0.00,WXlink_for_OpenVMS,2013-02-07 05:00:00,
2013-02-07 00:05:00,27.1,8.0,30.02,West,263,0.0,0.0,43,0.00,,,0.00,WXlink_for_OpenVMS,2013-02-07 05:05:00,
2013-02-07 00:10:00,27.0,7.0,30.02,West,268,0.0,0.0,43,0.00,,,0.00,WXlink_for_OpenVMS,2013-02-07 05:10:00,
2013-02-07 00:20:00,27.0,7.0,30.02,West,261,2.7,2.7,43,0.00,,,0.00,WXlink_for_OpenVMS,2013-02-07 05:20:00,
2013-02-07 00:25:00,26.8,7.0,30.02,West,280,0.0,2.7,43,0.00,,,0.00,WXlink_for_OpenVMS,2013-02-07 05:25:00,
2013-02-07 00:30:00,26.8,7.0,30.02,WSW,246,2.2,0.0,43,0.00,,,0.00,WXlink_for_OpenVMS,2013-02-07 05:30:00,
2013-02-07 00:35:00,26.6,7.0,30.02,West,275,0.0,0.0,43,0.00,,,0.00,WXlink_for_OpenVMS,2013-02-07 05:35:00,
2013-02-07 00:40:00,26.6,7.0,30.02,WNW,283,0.0,0.0,43,0.00,,,0.00,WXlink_for_OpenVMS,2013-02-07 05:40:00,
2013-02-07 00:45:00,26.4,7.0,30.02,WNW,283,0.0,0.0,43,0.00,,,0.00,WXlink_for_OpenVMS,2013-02-07 05:45:00,
2013-02-07 00:55:00,26.2,7.0,30.02,WNW,283,0.0,0.0,43,0.00,,,0.00,WXlink_for_OpenVMS,2013-02-07 05:55:00,
2013-02-07 01:05:00,26.1,7.0,30.02,WNW,287,0.0,0.0,43,0.00,,,0.00,WXlink_for_OpenVMS,2013-02-07 06:05:00,
2013-02-07 01:15:00,25.9,6.0,30.05,NW,316,0.0,0.0,43,0.00,,,0.00,WXlink_for_OpenVMS,2013-02-07 06:15:00,
2013-02-07 01:20:00,25.7,6.0,30.05,NW,316,0.0,0.0,43,0.00,,,0.00,WXlink_for_OpenVMS,2013-02-07 06:20:00,
2013-02-07 01:25:00,25.7,6.0,30.05,NW,316,0.0,0.0,43,0.00,,,0.00,WXlink_for_OpenVMS,2013-02-07 06:25:00,
2013-02-07 01:30:00,25.5,7.0,30.05,NW,316,0.0,0.0,44,0.00,,,0.00,WXlink_for_OpenVMS,2013-02-07 06:30:00,
2013-02-07 01:36:00,25.3,6.0,30.05,NW,316,0.0,0.0,44,0.00,,,0.00,WXlink_for_OpenVMS,2013-02-07 06:36:00,
2013-02-07 01:41:00,25.3,6.0,30.05,NW,316,0.0,0.0,44,0.00,,,0.00,WXlink_for_OpenVMS,2013-02-07 06:41:00,
2013-02-07 01:46:00,25.3,6.0,30.05,NW,316,0.0,0.0,44,0.00,,,0.00,WXlink_for_OpenVMS,2013-02-07 06:46:00,
2013-02-07 01:55:00,24.6,6.0,30.05,NW,316,0.0,0.0,44,0.00,,,0.00,WXlink_for_OpenVMS,2013-02-07 06:55:00,
2013-02-07 02:00:00,24.4,6.0,30.05,NW,316,0.0,0.0,44,0.00,,,0.00,WXlink_for_OpenVMS,2013-02-07 07:00:00,
2013-02-07 02:05:00,24.4,6.0,30.05,NW,316,0.0,0.0,44,0.00,,,0.00,WXlink_for_OpenVMS,2013-02-07 07:05:00,
2013-02-07 02:11:00,24.4,6.0,30.05,NW,316,0.0,0.0,44,0.00,,,0.00,WXlink_for_OpenVMS,2013-02-07 07:11:00,
2013-02-07 02:20:00,24.1,5.0,30.05,NW,316,0.0,0.0,44,0.00,,,0.00,WXlink_for_OpenVMS,2013-02-07 07:20:00,
2013-02-07 02:25:00,23.2,4.0,30.05,NW,316,0.0,0.0,44,0.00,,,0.00,WXlink_for_OpenVMS,2013-02-07 07:25:00,
2013-02-07 02:30:00,23.0,4.0,30.05,NW,316,0.0,0.0,44,0.00,,,0.00,WXlink_for_OpenVMS,2013-02-07 07:30:00,
2013-02-07 02:35:00,23.2,4.0,30.05,NW,316,0.0,0.0,44,0.00,,,0.00,WXlink_for_OpenVMS,2013-02-07 07:35:00,
2013-02-07 02:40:00,23.2,4.0,30.05,NW,316,0.0,0.0,44,0.00,,,0.00,WXlink_for_OpenVMS,2013-02-07 07:40:00,
2013-02-07 02:46:00,23.2,4.0,30.05,NW,316,0.0,0.0,44,0.00,,,0.00,WXlink_for_OpenVMS,2013-02-07 07:46:00,
2013-02-07 02:55:00,22.8,5.0,30.05,NW,316,0.0,0.0,45,0.00,,,0.00,WXlink_for_OpenVMS,2013-02-07 07:55:00,
2013-02-07 03:00:00,22.5,4.0,30.08,NW,316,0.0,0.0,45,0.00,,,0.00,WXlink_for_OpenVMS,2013-02-07 08:00:00,
2013-02-07 03:11:00,22.3,4.0,30.08,NW,316,0.0,0.0,45,0.00,,,0.00,WXlink_for_OpenVMS,2013-02-07 08:11:00,
2013-02-07 03:20:00,22.3,4.0,30.08,NW,316,0.0,0.0,45,0.00,,,0.00,WXlink_for_OpenVMS,2013-02-07 08:20:00,
2013-02-07 03:25:00,22.3,4.0,30.08,NW,316,0.0,0.0,45,0.00,,,0.00,WXlink_for_OpenVMS,2013-02-07 08:25:00,
2013-02-07 03:30:00,22.1,4.0,30.08,NW,316,0.0,0.0,45,0.00,,,0.00,WXlink_for_OpenVMS,2013-02-07 08:30:00,
2013-02-07 03:35:00,22.3,4.0,30.08,NW,316,0.0,0.0,45,0.00,,,0.00,WXlink_for_OpenVMS,2013-02-07 08:35:00,
2013-02-07 03:41:00,21.9,4.0,30.08,NW,316,0.0,0.0,45,0.00,,,0.00,WXlink_for_OpenVMS,2013-02-07 08:41:00,
2013-02-07 03:46:00,21.7,4.0,30.11,NW,316,0.0,0.0,46,0.00,,,0.00,WXlink_for_OpenVMS,2013-02-07 08:46:00,
2013-02-07 03:55:00,21.4,4.0,30.11,NW,316,0.0,0.0,46,0.00,,,0.00,WXlink_for_OpenVMS,2013-02-07 08:55:00,
2013-02-07 04:00:00,21.0,3.0,30.11,NW,316,0.0,0.0,46,0.00,,,0.00,WXlink_for_OpenVMS,2013-02-07 09:00:00,
2013-02-07 04:05:00,20.7,3.0,30.11,NW,316,0.0,0.0,46,0.00,,,0.00,WXlink_for_OpenVMS,2013-02-07 09:05:00,
2013-02-07 04:11:00,20.3,3.0,30.11,NW,316,0.0,0.0,46,0.00,,,0.00,WXlink_for_OpenVMS,2013-02-07 09:11:00,
2013-02-07 04:20:00,20.3,3.0,30.11,NW,316,0.0,0.0,46,0.00,,,0.00,WXlink_for_OpenVMS,2013-02-07 09:20:00,
2013-02-07 04:25:00,20.3,3.0,30.11,NW,316,0.0,0.0,47,0.00,,,0.00,WXlink_for_OpenVMS,2013-02-07 09:25:00,
2013-02-07 04:30:00,20.3,3.0,30.14,NW,316,0.0,0.0,47,0.00,,,0.00,WXlink_for_OpenVMS,2013-02-07 09:30:00,
2013-02-07 04:35:00,20.1,3.0,30.14,NW,316,0.0,0.0,47,0.00,,,0.00,WXlink_for_OpenVMS,2013-02-07 09:35:00,
2013-02-07 04:40:00,19.4,2.0,30.14,NW,316,0.0,0.0,47,0.00,,,0.00,WXlink_for_OpenVMS,2013-02-07 09:40:00,
2013-02-07 04:46:00,19.0,2.0,30.11,NW,316,0.0,0.0,47,0.00,,,0.00,WXlink_for_OpenVMS,2013-02-07 09:46:00,
2013-02-07 04:56:00,19.4,3.0,30.11,NW,316,0.0,0.0,48,0.00,,,0.00,WXlink_for_OpenVMS,2013-02-07 09:56:00,
2013-02-07 05:05:00,19.6,3.0,30.14,NW,316,0.0,0.0,48,0.00,,,0.00,WXlink_for_OpenVMS,2013-02-07 10:05:00,
2013-02-07 05:10:00,19.0,3.0,30.14,NW,316,0.0,0.0,48,0.00,,,0.00,WXlink_for_OpenVMS,2013-02-07 10:10:00,
2013-02-07 05:15:00,18.3,2.0,30.14,NW,316,0.0,0.0,49,0.00,,,0.00,WXlink_for_OpenVMS,2013-02-07 10:15:00,
2013-02-07 05:21:00,18.7,3.0,30.14,NW,316,0.0,0.0,49,0.00,,,0.00,WXlink_for_OpenVMS,2013-02-07 10:21:00,
2013-02-07 05:30:00,19.0,3.0,30.14,NW,316,0.0,0.0,50,0.00,,,0.00,WXlink_for_OpenVMS,2013-02-07 10:30:00,
2013-02-07 05:41:00,18.3,3.0,30.14,NW,316,0.0,0.0,50,0.00,,,0.00,WXlink_for_OpenVMS,2013-02-07 10:41:00,
2013-02-07 05:50:00,18.3,3.0,30.14,NW,316,0.0,0.0,50,0.00,,,0.00,WXlink_for_OpenVMS,2013-02-07 10:50:00,
2013-02-07 05:55:00,18.1,3.0,30.14,NW,316,0.0,0.0,51,0.00,,,0.00,WXlink_for_OpenVMS,2013-02-07 10:55:00,
2013-02-07 06:00:00,18.0,3.0,30.14,NW,316,0.0,0.0,51,0.00,,,0.00,WXlink_for_OpenVMS,2013-02-07 11:00:00,
2013-02-07 06:05:00,18.0,3.0,30.14,NW,316,0.0,0.0,52,0.00,,,0.00,WXlink_for_OpenVMS,2013-02-07 11:05:00,
2013-02-07 06:10:00,18.1,3.0,30.14,NW,316,0.0,0.0,52,0.00,,,0.00,WXlink_for_OpenVMS,2013-02-07 11:10:00,
2013-02-07 06:15:00,18.1,3.0,30.14,NW,316,0.0,0.0,52,0.00,,,0.00,WXlink_for_OpenVMS,2013-02-07 11:15:00,
2013-02-07 06:25:00,18.0,4.0,30.14,NW,316,0.0,0.0,53,0.00,,,0.00,WXlink_for_OpenVMS,2013-02-07 11:25:00,
2013-02-07 06:30:00,17.8,4.0,30.17,NW,316,0.0,0.0,54,0.00,,,0.00,WXlink_for_OpenVMS,2013-02-07 11:30:00,
2013-02-07 06:35:00,17.6,4.0,30.17,NW,316,0.0,0.0,54,0.00,,,0.00,WXlink_for_OpenVMS,2013-02-07 11:35:00,
2013-02-07 06:40:00,17.4,4.0,30.17,NW,316,0.0,0.0,54,0.00,,,0.00,WXlink_for_OpenVMS,2013-02-07 11:40:00,
2013-02-07 06:46:00,17.8,4.0,30.17,NW,316,0.0,0.0,54,0.00,,,0.00,WXlink_for_OpenVMS,2013-02-07 11:46:00,
2013-02-07 06:55:00,17.6,4.0,30.17,NW,316,0.0,0.0,54,0.00,,,0.00,WXlink_for_OpenVMS,2013-02-07 11:55:00,
2013-02-07 07:00:00,17.6,4.0,30.17,NW,316,0.0,0.0,54,0.00,,,0.00,WXlink_for_OpenVMS,2013-02-07 12:00:00,
2013-02-07 07:06:00,18.1,4.0,30.17,NW,316,0.0,0.0,54,0.00,,,0.00,WXlink_for_OpenVMS,2013-02-07 12:06:00,
2013-02-07 07:15:00,18.5,5.0,30.19,NW,316,0.0,0.0,54,0.00,,,0.00,WXlink_for_OpenVMS,2013-02-07 12:15:00,
2013-02-07 07:20:00,18.1,4.0,30.19,NW,316,0.0,0.0,54,0.00,,,0.00,WXlink_for_OpenVMS,2013-02-07 12:20:00,
2013-02-07 07:26:00,17.6,4.0,30.19,NW,316,0.0,0.0,54,0.00,,,0.00,WXlink_for_OpenVMS,2013-02-07 12:26:00,
2013-02-07 07:35:00,17.4,3.0,30.19,NW,316,0.0,0.0,53,0.00,,,0.00,WXlink_for_OpenVMS,2013-02-07 12:35:00,
2013-02-07 07:40:00,18.0,4.0,30.19,NW,316,0.0,0.0,53,0.00,,,0.00,WXlink_for_OpenVMS,2013-02-07 12:40:00,
2013-02-07 07:45:00,18.5,4.0,30.19,NW,316,0.0,0.0,52,0.00,,,0.00,WXlink_for_OpenVMS,2013-02-07 12:45:00,
2013-02-07 07:50:00,19.2,4.0,30.19,NW,316,0.0,0.0,51,0.00,,,0.00,WXlink_for_OpenVMS,2013-02-07 12:50:00,
2013-02-07 07:55:00,19.6,4.0,30.19,NW,316,0.0,0.0,51,0.00,,,0.00,WXlink_for_OpenVMS,2013-02-07 12:55:00,
2013-02-07 08:01:00,20.1,4.0,30.19,NW,316,0.0,0.0,50,0.00,,,0.00,WXlink_for_OpenVMS,2013-02-07 13:01:00,
2013-02-07 08:10:00,20.7,5.0,30.19,WNW,294,0.0,0.0,49,0.00,,,0.00,WXlink_for_OpenVMS,2013-02-07 13:10:00,
2013-02-07 08:15:00,21.0,5.0,30.22,WNW,294,0.0,0.0,49,0.00,,,0.00,WXlink_for_OpenVMS,2013-02-07 13:15:00,
2013-02-07 08:20:00,21.2,5.0,30.22,WNW,298,0.0,0.0,49,0.00,,,0.00,WXlink_for_OpenVMS,2013-02-07 13:20:00,
2013-02-07 08:25:00,21.4,5.0,30.22,WNW,287,0.0,0.0,48,0.00,,,0.00,WXlink_for_OpenVMS,2013-02-07 13:25:00,
2013-02-07 08:30:00,21.6,5.0,30.22,WNW,293,0.0,0.0,48,0.00,,,0.00,WXlink_for_OpenVMS,2013-02-07 13:30:00,
2013-02-07 08:35:00,21.7,5.0,30.22,WNW,300,0.0,3.6,48,0.00,,,0.00,WXlink_for_OpenVMS,2013-02-07 13:35:00,
2013-02-07 08:41:00,21.9,5.0,30.22,WNW,287,2.7,2.7,47,0.00,,,0.00,WXlink_for_OpenVMS,2013-02-07 13:41:00,
2013-02-07 08:50:00,22.5,5.0,30.22,NW,306,0.0,0.0,47,0.00,,,0.00,WXlink_for_OpenVMS,2013-02-07 13:50:00,
2013-02-07 08:55:00,22.8,6.0,30.22,WSW,237,0.0,0.0,47,0.00,,,0.00,WXlink_for_OpenVMS,2013-02-07 13:55:00,
2013-02-07 09:05:00,23.4,6.0,30.22,SW,223,0.0,5.4,46,0.00,,,0.00,WXlink_for_OpenVMS,2013-02-07 14:05:00,
2013-02-07 09:10:00,23.7,6.0,30.22,NW,305,3.6,5.4,46,0.00,,,0.00,WXlink_for_OpenVMS,2013-02-07 14:10:00,
2013-02-07 09:15:00,23.7,5.0,30.22,NW,324,2.7,0.0,45,0.00,,,0.00,WXlink_for_OpenVMS,2013-02-07 14:15:00,
2013-02-07 09:20:00,23.5,5.0,30.22,West,281,2.7,4.9,45,0.00,,,0.00,WXlink_for_OpenVMS,2013-02-07 14:20:00,
2013-02-07 09:25:00,23.5,5.0,30.22,WNW,293,6.7,6.7,45,0.00,,,0.00,WXlink_for_OpenVMS,2013-02-07 14:25:00,
2013-02-07 09:30:00,23.5,5.0,30.22,NW,305,3.1,3.1,45,0.00,,,0.00,WXlink_for_OpenVMS,2013-02-07 14:30:00,
2013-02-07 09:35:00,23.7,5.0,30.22,WNW,287,2.7,2.7,44,0.00,,,0.00,WXlink_for_OpenVMS,2013-02-07 14:35:00,
2013-02-07 09:41:00,24.1,5.0,30.22,NW,314,4.5,4.5,44,0.00,,,0.00,WXlink_for_OpenVMS,2013-02-07 14:41:00,
2013-02-07 09:50:00,24.3,5.0,30.22,SW,234,3.1,3.1,43,0.00,,,0.00,WXlink_for_OpenVMS,2013-02-07 14:50:00,
2013-02-07 09:55:00,24.4,5.0,30.22,West,263,3.1,3.1,43,0.00,,,0.00,WXlink_for_OpenVMS,2013-02-07 14:55:00,
2013-02-07 10:00:00,24.6,5.0,30.22,NNW,333,0.0,5.4,43,0.00,,,0.00,WXlink_for_OpenVMS,2013-02-07 15:00:00,
2013-02-07 10:05:00,24.8,5.0,30.22,NW,315,4.9,5.4,43,0.00,,,0.00,WXlink_for_OpenVMS,2013-02-07 15:05:00,
2013-02-07 10:10:00,24.6,5.0,30.22,NW,310,3.1,3.1,43,0.00,,,0.00,WXlink_for_OpenVMS,2013-02-07 15:10:00,
2013-02-07 10:15:00,25.0,5.0,30.25,West,261,2.7,2.7,42,0.00,,,0.00,WXlink_for_OpenVMS,2013-02-07 15:15:00,
2013-02-07 10:20:00,25.5,6.0,30.25,SSW,212,0.0,0.0,42,0.00,,,0.00,WXlink_for_OpenVMS,2013-02-07 15:20:00,
2013-02-07 10:25:00,25.9,6.0,30.25,NNW,327,3.6,3.6,42,0.00,,,0.00,WXlink_for_OpenVMS,2013-02-07 15:25:00,
2013-02-07 10:30:00,25.7,6.0,30.25,NW,315,4.9,4.9,42,0.00,,,0.00,WXlink_for_OpenVMS,2013-02-07 15:30:00,
2013-02-07 10:35:00,25.7,6.0,30.25,NW,322,4.0,4.0,42,0.00,,,0.00,WXlink_for_OpenVMS,2013-02-07 15:35:00,
2013-02-07 10:45:00,25.9,5.0,30.25,WNW,301,4.0,4.0,41,0.00,,,0.00,WXlink_for_OpenVMS,2013-02-07 15:45:00,
2013-02-07 10:50:00,25.9,5.0,30.25,WNW,302,4.0,5.8,41,0.00,,,0.00,WXlink_for_OpenVMS,2013-02-07 15:50:00,
2013-02-07 10:55:00,26.1,6.0,30.25,WNW,298,4.9,4.9,41,0.00,,,0.00,WXlink_for_OpenVMS,2013-02-07 15:55:00,
2013-02-07 11:00:00,26.2,6.0,30.25,WNW,300,3.6,5.4,41,0.00,,,0.00,WXlink_for_OpenVMS,2013-02-07 16:00:00,
2013-02-07 11:05:00,26.4,6.0,30.25,WNW,302,0.0,4.0,41,0.00,,,0.00,WXlink_for_OpenVMS,2013-02-07 16:05:00,
2013-02-07 11:10:00,26.8,6.0,30.25,NNW,340,2.7,3.1,40,0.00,,,0.00,WXlink_for_OpenVMS,2013-02-07 16:10:00,
2013-02-07 11:15:00,27.0,6.0,30.25,NNW,333,0.0,0.0,40,0.00,,,0.00,WXlink_for_OpenVMS,2013-02-07 16:15:00,
2013-02-07 11:20:00,27.1,5.0,30.25,NW,319,4.0,4.0,39,0.00,,,0.00,WXlink_for_OpenVMS,2013-02-07 16:20:00,
2013-02-07 11:25:00,27.5,6.0,30.25,NW,325,3.1,3.6,39,0.00,,,0.00,WXlink_for_OpenVMS,2013-02-07 16:25:00,
2013-02-07 11:35:00,27.5,5.0,30.22,WNW,284,0.0,2.7,38,0.00,,,0.00,WXlink_for_OpenVMS,2013-02-07 16:35:00,
2013-02-07 11:40:00,27.9,6.0,30.22,WNW,303,2.7,0.0,38,0.00,,,0.00,WXlink_for_OpenVMS,2013-02-07 16:40:00,
2013-02-07 11:45:00,28.4,5.0,30.22,NW,321,0.0,4.9,36,0.00,,,0.00,WXlink_for_OpenVMS,2013-02-07 16:45:00,
2013-02-07 11:50:00,28.6,5.0,30.22,NW,313,2.7,3.6,36,0.00,,,0.00,WXlink_for_OpenVMS,2013-02-07 16:50:00,
2013-02-07 11:55:00,28.8,5.0,30.22,WSW,239,4.0,4.0,36,0.00,,,0.00,WXlink_for_OpenVMS,2013-02-07 16:55:00,
2013-02-07 12:00:00,29.3,5.0,30.22,NW,318,0.0,0.0,35,0.00,,,0.00,WXlink_for_OpenVMS,2013-02-07 17:00:00,
2013-02-07 12:05:00,28.9,4.0,30.22,WNW,286,0.0,0.0,34,0.00,,,0.00,WXlink_for_OpenVMS,2013-02-07 17:05:00,
2013-02-07 12:10:00,29.3,5.0,30.22,SW,223,3.6,3.6,35,0.00,,,0.00,WXlink_for_OpenVMS,2013-02-07 17:10:00,
2013-02-07 12:15:00,29.1,4.0,30.22,NNW,339,0.0,0.0,34,0.00,,,0.00,WXlink_for_OpenVMS,2013-02-07 17:15:00,
2013-02-07 12:20:00,29.5,5.0,30.22,WNW,297,0.0,5.8,34,0.00,,,0.00,WXlink_for_OpenVMS,2013-02-07 17:20:00,
2013-02-07 12:30:00,30.6,5.0,30.22,WNW,298,3.1,3.1,33,0.00,,,0.00,WXlink_for_OpenVMS,2013-02-07 17:30:00,
2013-02-07 12:35:00,30.9,4.0,30.22,North,353,2.2,0.0,32,0.00,,,0.00,WXlink_for_OpenVMS,2013-02-07 17:35:00,
2013-02-07 12:40:00,30.2,4.0,30.22,North,353,0.0,0.0,32,0.00,,,0.00,WXlink_for_OpenVMS,2013-02-07 17:40:00,
2013-02-07 12:45:00,29.8,4.0,30.19,NNW,328,3.6,3.6,32,0.00,,,0.00,WXlink_for_OpenVMS,2013-02-07 17:45:00,
2013-02-07 12:50:00,30.0,3.0,30.19,North,0,0.0,0.0,31,0.00,,,0.00,WXlink_for_OpenVMS,2013-02-07 17:50:00,
2013-02-07 12:55:00,29.7,3.0,30.19,East,85,0.0,0.0,31,0.00,,,0.00,WXlink_for_OpenVMS,2013-02-07 17:55:00,
2013-02-07 13:00:00,30.0,4.0,30.19,East,85,0.0,0.0,32,0.00,,,0.00,WXlink_for_OpenVMS,2013-02-07 18:00:00,
2013-02-07 13:10:00,31.5,5.0,30.19,NNW,335,3.1,3.1,32,0.00,,,0.00,WXlink_for_OpenVMS,2013-02-07 18:10:00,
2013-02-07 13:15:00,31.5,4.0,30.19,NNW,333,0.0,0.0,31,0.00,,,0.00,WXlink_for_OpenVMS,2013-02-07 18:15:00,
2013-02-07 13:20:00,31.8,5.0,30.19,NW,315,0.0,0.0,32,0.00,,,0.00,WXlink_for_OpenVMS,2013-02-07 18:20:00,
2013-02-07 13:25:00,32.2,6.0,30.19,WNW,285,0.0,0.0,32,0.00,,,0.00,WXlink_for_OpenVMS,2013-02-07 18:25:00,
2013-02-07 13:30:00,32.4,6.0,30.19,WNW,289,3.6,4.0,32,0.00,,,0.00,WXlink_for_OpenVMS,2013-02-07 18:30:00,
2013-02-07 13:35:00,32.0,5.0,30.19,NW,326,0.0,0.0,31,0.00,,,0.00,WXlink_for_OpenVMS,2013-02-07 18:35:00,
2013-02-07 13:40:00,32.2,6.0,30.19,SW,231,4.0,4.0,32,0.00,,,0.00,WXlink_for_OpenVMS,2013-02-07 18:40:00,
2013-02-07 13:45:00,32.5,6.0,30.19,NW,319,0.0,0.0,32,0.00,,,0.00,WXlink_for_OpenVMS,2013-02-07 18:45:00,
2013-02-07 13:50:00,32.4,5.0,30.19,NW,319,0.0,0.0,31,0.00,,,0.00,WXlink_for_OpenVMS,2013-02-07 18:50:00,
2013-02-07 13:55:00,32.0,5.0,30.19,NNW,341,0.0,0.0,31,0.00,,,0.00,WXlink_for_OpenVMS,2013-02-07 18:55:00,
2013-02-07 14:00:00,32.0,5.0,30.19,West,264,0.0,0.0,31,0.00,,,0.00,WXlink_for_OpenVMS,2013-02-07 19:00:00,
2013-02-07 14:05:00,32.0,5.0,30.19,NW,326,3.1,4.0,31,0.00,,,0.00,WXlink_for_OpenVMS,2013-02-07 19:05:00,
2013-02-07 14:10:00,32.5,5.0,30.19,NW,314,0.0,0.0,31,0.00,,,0.00,WXlink_for_OpenVMS,2013-02-07 19:10:00,
2013-02-07 14:15:00,32.4,5.0,30.19,WNW,291,0.0,3.6,31,0.00,,,0.00,WXlink_for_OpenVMS,2013-02-07 19:15:00,
2013-02-07 14:20:00,32.5,5.0,30.19,NW,312,0.0,0.0,31,0.00,,,0.00,WXlink_for_OpenVMS,2013-02-07 19:20:00,
2013-02-07 14:25:00,32.5,5.0,30.19,NW,312,0.0,0.0,31,0.00,,,0.00,WXlink_for_OpenVMS,2013-02-07 19:25:00,
2013-02-07 14:30:00,32.7,5.0,30.19,North,0,0.0,0.0,31,0.00,,,0.00,WXlink_for_OpenVMS,2013-02-07 19:30:00,
2013-02-07 14:35:00,32.2,6.0,30.19,SW,222,0.0,0.0,32,0.00,,,0.00,WXlink_for_OpenVMS,2013-02-07 19:35:00,
2013-02-07 14:45:00,30.7,4.0,30.19,East,95,0.0,0.0,31,0.00,,,0.00,WXlink_for_OpenVMS,2013-02-07 19:45:00,
2013-02-07 14:50:00,30.6,3.0,30.19,NE,36,0.0,0.0,31,0.00,,,0.00,WXlink_for_OpenVMS,2013-02-07 19:50:00,
2013-02-07 14:55:00,30.7,4.0,30.19,East,98,0.0,0.0,32,0.00,,,0.00,WXlink_for_OpenVMS,2013-02-07 19:55:00,
2013-02-07 15:00:00,30.7,4.0,30.19,East,98,0.0,0.0,32,0.00,,,0.00,WXlink_for_OpenVMS,2013-02-07 20:00:00,
2013-02-07 15:05:00,31.1,4.0,30.19,NW,324,0.0,0.0,31,0.00,,,0.00,WXlink_for_OpenVMS,2013-02-07 20:05:00,
2013-02-07 15:10:00,31.3,4.0,30.19,NW,304,0.0,0.0,31,0.00,,,0.00,WXlink_for_OpenVMS,2013-02-07 20:10:00,
2013-02-07 15:15:00,31.5,4.0,30.19,WNW,283,0.0,0.0,31,0.00,,,0.00,WXlink_for_OpenVMS,2013-02-07 20:15:00,
2013-02-07 15:20:00,31.6,4.0,30.19,NW,307,0.0,0.0,31,0.00,,,0.00,WXlink_for_OpenVMS,2013-02-07 20:20:00,
2013-02-07 15:25:00,31.6,4.0,30.19,NW,307,0.0,0.0,31,0.00,,,0.00,WXlink_for_OpenVMS,2013-02-07 20:25:00,
2013-02-07 15:35:00,31.1,4.0,30.19,NW,307,0.0,0.0,31,0.00,,,0.00,WXlink_for_OpenVMS,2013-02-07 20:35:00,
2013-02-07 15:40:00,30.9,4.0,30.19,NW,307,0.0,0.0,31,0.00,,,0.00,WXlink_for_OpenVMS,2013-02-07 20:40:00,
2013-02-07 15:45:00,30.7,4.0,30.19,WNW,288,0.0,0.0,31,0.00,,,0.00,WXlink_for_OpenVMS,2013-02-07 20:45:00,
2013-02-07 15:50:00,30.9,4.0,30.19,WSW,243,0.0,0.0,31,0.00,,,0.00,WXlink_for_OpenVMS,2013-02-07 20:50:00,
2013-02-07 15:55:00,30.9,4.0,30.19,West,280,0.0,0.0,31,0.00,,,0.00,WXlink_for_OpenVMS,2013-02-07 20:55:00,
2013-02-07 16:00:00,30.6,3.0,30.19,North,353,0.0,0.0,31,0.00,,,0.00,WXlink_for_OpenVMS,2013-02-07 21:00:00,
2013-02-07 16:05:00,30.4,3.0,30.19,North,353,0.0,0.0,31,0.00,,,0.00,WXlink_for_OpenVMS,2013-02-07 21:05:00,
2013-02-07 16:10:00,30.2,3.0,30.19,North,353,0.0,0.0,31,0.00,,,0.00,WXlink_for_OpenVMS,2013-02-07 21:10:00,
2013-02-07 16:15:00,30.0,3.0,30.19,North,353,0.0,0.0,31,0.00,,,0.00,WXlink_for_OpenVMS,2013-02-07 21:15:00,
2013-02-07 16:20:00,30.0,3.0,30.19,North,353,0.0,0.0,31,0.00,,,0.00,WXlink_for_OpenVMS,2013-02-07 21:20:00,
2013-02-07 16:25:00,30.0,4.0,30.19,North,353,0.0,0.0,32,0.00,,,0.00,WXlink_for_OpenVMS,2013-02-07 21:25:00,
2013-02-07 16:30:00,30.0,4.0,30.19,North,353,0.0,0.0,32,0.00,,,0.00,WXlink_for_OpenVMS,2013-02-07 21:30:00,
2013-02-07 16:35:00,29.7,3.0,30.19,East,85,0.0,0.0,32,0.00,,,0.00,WXlink_for_OpenVMS,2013-02-07 21:35:00,
2013-02-07 16:40:00,29.5,3.0,30.19,ENE,74,0.0,0.0,31,0.00,,,0.00,WXlink_for_OpenVMS,2013-02-07 21:40:00,
2013-02-07 16:45:00,29.3,2.0,30.19,NW,318,0.0,0.0,31,0.00,,,0.00,WXlink_for_OpenVMS,2013-02-07 21:45:00,
2013-02-07 16:50:00,28.9,2.0,30.19,ENE,75,0.0,0.0,31,0.00,,,0.00,WXlink_for_OpenVMS,2013-02-07 21:50:00,
2013-02-07 16:55:00,28.8,2.0,30.19,ENE,61,0.0,0.0,31,0.00,,,0.00,WXlink_for_OpenVMS,2013-02-07 21:55:00,
2013-02-07 17:00:00,28.6,2.0,30.19,ENE,57,0.0,0.0,31,0.00,,,0.00,WXlink_for_OpenVMS,2013-02-07 22:00:00,
2013-02-07 17:05:00,28.2,1.0,30.19,East,97,2.7,2.7,31,0.00,,,0.00,WXlink_for_OpenVMS,2013-02-07 22:05:00,
2013-02-07 17:15:00,28.2,2.0,30.19,East,96,0.0,0.0,32,0.00,,,0.00,WXlink_for_OpenVMS,2013-02-07 22:15:00,
2013-02-07 17:20:00,28.4,2.0,30.19,East,96,0.0,0.0,32,0.00,,,0.00,WXlink_for_OpenVMS,2013-02-07 22:20:00,
2013-02-07 17:25:00,28.6,2.0,30.19,East,96,0.0,0.0,32,0.00,,,0.00,WXlink_for_OpenVMS,2013-02-07 22:25:00,
2013-02-07 17:30:00,28.6,2.0,30.19,East,96,0.0,0.0,32,0.00,,,0.00,WXlink_for_OpenVMS,2013-02-07 22:30:00,
2013-02-07 17:35:00,28.4,2.0,30.19,East,96,0.0,0.0,32,0.00,,,0.00,WXlink_for_OpenVMS,2013-02-07 22:35:00,
2013-02-07 17:40:00,28.4,2.0,30.19,East,97,0.0,0.0,32,0.00,,,0.00,WXlink_for_OpenVMS,2013-02-07 22:40:00,
2013-02-07 17:45:00,28.4,2.0,30.19,East,97,0.0,0.0,32,0.00,,,0.00,WXlink_for_OpenVMS,2013-02-07 22:45:00,
2013-02-07 17:50:00,28.4,2.0,30.19,East,97,0.0,0.0,32,0.00,,,0.00,WXlink_for_OpenVMS,2013-02-07 22:50:00,
2013-02-07 18:00:00,28.6,2.0,30.19,East,97,0.0,0.0,32,0.00,,,0.00,WXlink_for_OpenVMS,2013-02-07 23:00:00,
2013-02-07 18:05:00,28.2,2.0,30.19,East,97,0.0,0.0,32,0.00,,,0.00,WXlink_for_OpenVMS,2013-02-07 23:05:00,
2013-02-07 18:10:00,28.2,2.0,30.19,East,97,0.0,0.0,32,0.00,,,0.00,WXlink_for_OpenVMS,2013-02-07 23:10:00,
2013-02-07 18:15:00,28.0,2.0,30.19,ENE,69,0.0,0.0,32,0.00,,,0.00,WXlink_for_OpenVMS,2013-02-07 23:15:00,
2013-02-07 18:20:00,28.0,2.0,30.19,ENE,69,0.0,0.0,32,0.00,,,0.00,WXlink_for_OpenVMS,2013-02-07 23:20:00,
2013-02-07 18:25:00,27.9,2.0,30.19,North,353,0.0,0.0,32,0.00,,,0.00,WXlink_for_OpenVMS,2013-02-07 23:25:00,
2013-02-07 18:30:00,27.7,2.0,30.22,East,95,0.0,0.0,32,0.00,,,0.00,WXlink_for_OpenVMS,2013-02-07 23:30:00,
2013-02-07 18:40:00,27.7,2.0,30.22,SE,129,0.0,0.0,32,0.00,,,0.00,WXlink_for_OpenVMS,2013-02-07 23:40:00,
2013-02-07 18:45:00,27.7,2.0,30.22,SE,129,0.0,0.0,32,0.00,,,0.00,WXlink_for_OpenVMS,2013-02-07 23:45:00,
2013-02-07 18:50:00,27.7,2.0,30.22,SE,129,0.0,0.0,32,0.00,,,0.00,WXlink_for_OpenVMS,2013-02-07 23:50:00,
2013-02-07 18:55:00,27.9,2.0,30.22,SE,129,0.0,0.0,32,0.00,,,0.00,WXlink_for_OpenVMS,2013-02-07 23:55:00,
2013-02-07 19:00:00,27.7,2.0,30.22,SE,129,0.0,0.0,32,0.00,,,0.00,WXlink_for_OpenVMS,2013-02-08 00:00:00,
2013-02-07 19:05:00,27.7,2.0,30.22,SE,129,0.0,0.0,32,0.00,,,0.00,WXlink_for_OpenVMS,2013-02-08 00:05:00,
2013-02-07 19:10:00,27.7,2.0,30.22,SE,129,0.0,0.0,32,0.00,,,0.00,WXlink_for_OpenVMS,2013-02-08 00:10:00,
2013-02-07 19:15:00,27.7,2.0,30.22,SE,129,0.0,0.0,32,0.00,,,0.00,WXlink_for_OpenVMS,2013-02-08 00:15:00,
2013-02-07 19:20:00,27.5,1.0,30.22,SE,129,0.0,0.0,32,0.00,,,0.00,WXlink_for_OpenVMS,2013-02-08 00:20:00,
2013-02-07 19:25:00,27.3,1.0,30.22,SE,129,0.0,0.0,32,0.00,,,0.00,WXlink_for_OpenVMS,2013-02-08 00:25:00,
2013-02-07 19:30:00,27.3,1.0,30.22,SE,129,0.0,0.0,32,0.00,,,0.00,WXlink_for_OpenVMS,2013-02-08 00:30:00,
2013-02-07 19:41:00,26.8,1.0,30.22,SE,129,0.0,0.0,32,0.00,,,0.00,WXlink_for_OpenVMS,2013-02-08 00:41:00,
2013-02-07 19:50:00,26.8,1.0,30.22,SE,129,0.0,0.0,32,0.00,,,0.00,WXlink_for_OpenVMS,2013-02-08 00:50:00,
2013-02-07 19:55:00,26.6,1.0,30.22,SE,129,0.0,0.0,32,0.00,,,0.00,WXlink_for_OpenVMS,2013-02-08 00:55:00,
2013-02-07 20:00:00,27.0,1.0,30.22,SE,129,0.0,0.0,32,0.00,,,0.00,WXlink_for_OpenVMS,2013-02-08 01:00:00,
2013-02-07 20:05:00,27.0,1.0,30.22,SE,129,0.0,0.0,32,0.00,,,0.00,WXlink_for_OpenVMS,2013-02-08 01:05:00,
2013-02-07 20:10:00,26.8,1.0,30.22,SE,129,0.0,0.0,33,0.00,,,0.00,WXlink_for_OpenVMS,2013-02-08 01:10:00,
2013-02-07 20:15:00,26.6,1.0,30.22,SE,129,0.0,0.0,33,0.00,,,0.00,WXlink_for_OpenVMS,2013-02-08 01:15:00,
2013-02-07 20:20:00,26.6,1.0,30.22,SE,129,0.0,0.0,33,0.00,,,0.00,WXlink_for_OpenVMS,2013-02-08 01:20:00,
2013-02-07 20:30:00,26.6,1.0,30.22,SE,129,0.0,0.0,33,0.00,,,0.00,WXlink_for_OpenVMS,2013-02-08 01:30:00,
2013-02-07 20:35:00,26.6,1.0,30.22,SE,129,0.0,0.0,33,0.00,,,0.00,WXlink_for_OpenVMS,2013-02-08 01:35:00,
2013-02-07 20:40:00,26.6,1.0,30.22,SE,129,0.0,0.0,33,0.00,,,0.00,WXlink_for_OpenVMS,2013-02-08 01:40:00,
2013-02-07 20:45:00,26.2,1.0,30.22,SE,129,0.0,0.0,33,0.00,,,0.00,WXlink_for_OpenVMS,2013-02-08 01:45:00,
2013-02-07 20:50:00,26.2,0.0,30.22,SE,129,0.0,0.0,32,0.00,,,0.00,WXlink_for_OpenVMS,2013-02-08 01:50:00,
2013-02-07 20:55:00,26.4,1.0,30.22,SE,129,0.0,0.0,32,0.00,,,0.00,WXlink_for_OpenVMS,2013-02-08 01:55:00,
2013-02-07 21:00:00,26.4,1.0,30.22,SE,129,0.0,0.0,32,0.00,,,0.00,WXlink_for_OpenVMS,2013-02-08 02:00:00,
2013-02-07 21:05:00,26.6,1.0,30.22,SE,129,0.0,0.0,32,0.00,,,0.00,WXlink_for_OpenVMS,2013-02-08 02:05:00,
2013-02-07 21:11:00,26.8,1.0,30.22,SE,129,0.0,0.0,32,0.00,,,0.00,WXlink_for_OpenVMS,2013-02-08 02:11:00,
2013-02-07 21:20:00,26.6,1.0,30.22,SE,129,0.0,0.0,32,0.00,,,0.00,WXlink_for_OpenVMS,2013-02-08 02:20:00,
2013-02-07 21:25:00,26.8,1.0,30.22,SE,129,0.0,0.0,32,0.00,,,0.00,WXlink_for_OpenVMS,2013-02-08 02:25:00,
2013-02-07 21:30:00,26.6,1.0,30.22,SE,129,0.0,0.0,32,0.00,,,0.00,WXlink_for_OpenVMS,2013-02-08 02:30:00,
2013-02-07 21:35:00,26.4,1.0,30.22,SE,129,0.0,0.0,32,0.00,,,0.00,WXlink_for_OpenVMS,2013-02-08 02:35:00,
2013-02-07 21:40:00,26.4,1.0,30.22,SE,129,0.0,0.0,32,0.00,,,0.00,WXlink_for_OpenVMS,2013-02-08 02:40:00,
2013-02-07 21:45:00,26.6,1.0,30.22,SE,129,0.0,0.0,32,0.00,,,0.00,WXlink_for_OpenVMS,2013-02-08 02:45:00,
2013-02-07 21:50:00,26.8,1.0,30.22,SE,129,0.0,0.0,32,0.00,,,0.00,WXlink_for_OpenVMS,2013-02-08 02:50:00,
2013-02-07 22:00:00,26.8,1.0,30.22,SE,129,0.0,0.0,32,0.00,,,0.00,WXlink_for_OpenVMS,2013-02-08 03:00:00,
2013-02-07 22:05:00,26.8,1.0,30.22,SE,129,0.0,0.0,32,0.00,,,0.00,WXlink_for_OpenVMS,2013-02-08 03:05:00,
2013-02-07 22:10:00,26.8,1.0,30.22,SE,129,0.0,0.0,32,0.00,,,0.00,WXlink_for_OpenVMS,2013-02-08 03:10:00,
2013-02-07 22:15:00,26.4,1.0,30.19,SE,129,0.0,0.0,33,0.00,,,0.00,WXlink_for_OpenVMS,2013-02-08 03:15:00,
2013-02-07 22:20:00,26.6,1.0,30.19,SE,129,0.0,0.0,32,0.00,,,0.00,WXlink_for_OpenVMS,2013-02-08 03:20:00,
2013-02-07 22:25:00,26.6,1.0,30.19,SE,129,0.0,0.0,32,0.00,,,0.00,WXlink_for_OpenVMS,2013-02-08 03:25:00,
2013-02-07 22:35:00,26.4,1.0,30.19,SE,129,0.0,0.0,32,0.00,,,0.00,WXlink_for_OpenVMS,2013-02-08 03:35:00,
2013-02-07 22:40:00,26.6,1.0,30.19,SE,129,0.0,0.0,33,0.00,,,0.00,WXlink_for_OpenVMS,2013-02-08 03:40:00,
2013-02-07 22:50:00,26.6,1.0,30.19,SE,129,0.0,0.0,33,0.00,,,0.00,WXlink_for_OpenVMS,2013-02-08 03:50:00,
2013-02-07 22:55:00,26.6,1.0,30.19,SE,129,0.0,0.0,33,0.00,,,0.00,WXlink_for_OpenVMS,2013-02-08 03:55:00,
2013-02-07 23:00:00,26.6,1.0,30.19,SE,129,0.0,0.0,33,0.00,,,0.00,WXlink_for_OpenVMS,2013-02-08 04:00:00,
2013-02-07 23:05:00,26.6,1.0,30.19,SE,129,0.0,0.0,33,0.00,,,0.00,WXlink_for_OpenVMS,2013-02-08 04:05:00,
2013-02-07 23:10:00,26.8,2.0,30.19,SE,129,0.0,0.0,34,0.00,,,0.00,WXlink_for_OpenVMS,2013-02-08 04:10:00,
2013-02-07 23:15:00,26.8,2.0,30.19,SE,129,0.0,0.0,34,0.00,,,0.00,WXlink_for_OpenVMS,2013-02-08 04:15:00,
2013-02-07 23:20:00,26.8,2.0,30.19,SE,129,0.0,0.0,34,0.00,,,0.00,WXlink_for_OpenVMS,2013-02-08 04:20:00,
2013-02-07 23:30:00,26.8,2.0,30.22,SE,129,0.0,0.0,34,0.00,,,0.00,WXlink_for_OpenVMS,2013-02-08 04:30:00,
2013-02-07 23:35:00,27.0,3.0,30.22,SE,129,0.0,0.0,35,0.00,,,0.00,WXlink_for_OpenVMS,2013-02-08 04:35:00,
2013-02-07 23:40:00,26.8,3.0,30.22,SE,129,0.0,0.0,35,0.00,,,0.00,WXlink_for_OpenVMS,2013-02-08 04:40:00,
2013-02-07 23:45:00,26.6,3.0,30.22,SE,129,0.0,0.0,35,0.00,,,0.00,WXlink_for_OpenVMS,2013-02-08 04:45:00,
2013-02-07 23:50:00,26.6,3.0,30.22,SE,129,0.0,0.0,35,0.00,,,0.00,WXlink_for_OpenVMS,2013-02-08 04:50:00,
2013-02-07 23:55:00,26.8,3.0,30.22,SE,129,0.0,0.0,35,0.00,,,0.00,WXlink_for_OpenVMS,2013-02-08 04:55:00,